owner,sensor,date,latitude,longitude,vertical_datum,direction_of_sea_water_velocity,sea_water_speed,upward_sea_water_velocity,qcFlag 
TABS,ioos:station:wmo:42049:1,2013-05-01T00:00:00Z,28.3507,-96.0058,2.0,235.0057622,24.98739282,-99999.0,'11111222,11111222,99999999' 
TABS,ioos:station:wmo:42049:1,2013-05-01T00:30:00Z,28.3507,-96.0058,2.0,231.6987405,24.1855432,-99999.0,'11111222,11111222,99999999' 
TABS,ioos:station:wmo:42049:1,2013-05-01T01:00:00Z,28.3507,-96.0058,2.0,255.4808496,28.79970139,-99999.0,'11111222,11111222,99999999' 
TABS,ioos:station:wmo:42049:1,2013-05-01T01:30:00Z,28.3507,-96.0058,2.0,270.1352736,33.99009415,-99999.0,'11111222,11111222,99999999' 
TABS,ioos:station:wmo:42049:1,2013-05-01T02:00:00Z,28.3507,-96.0058,2.0,285.8308218,50.66142517,-99999.0,'11111222,11111222,99999999' 
TABS,ioos:station:wmo:42049:1,2013-05-01T02:30:00Z,28.3507,-96.0058,2.0,287.9576528,54.62075796,-99999.0,'11111222,11111222,99999999' 
TABS,ioos:station:wmo:42049:1,2013-05-01T03:00:00Z,28.3507,-96.0058,2.0,286.709093,52.17279847,-99999.0,'11111222,11111222,99999999' 
TABS,ioos:station:wmo:42049:1,2013-05-01T03:30:00Z,28.3507,-96.0058,2.0,288.7997884,48.71903529,-99999.0,'11111222,11111222,99999999' 
TABS,ioos:station:wmo:42049:1,2013-05-01T04:00:00Z,28.3507,-96.0058,2.0,286.7661977,48.63749377,-99999.0,'11111222,11111222,99999999' 
TABS,ioos:station:wmo:42049:1,2013-05-01T04:30:00Z,28.3507,-96.0058,2.0,286.6682893,45.53315276,-99999.0,'11111222,11111222,99999999' 
TABS,ioos:station:wmo:42049:1,2013-05-01T05:00:00Z,28.3507,-96.0058,2.0,285.9421888,43.83587686,-99999.0,'11111222,11111222,99999999' 
TABS,ioos:station:wmo:42049:1,2013-05-01T05:30:00Z,28.3507,-96.0058,2.0,290.9302288,38.21123657,-99999.0,'11111222,11111222,99999999' 
TABS,ioos:station:wmo:42049:1,2013-05-01T06:00:00Z,28.3507,-96.0058,2.0,288.9856853,35.22623596,-99999.0,'11111222,11111222,99999999' 
TABS,ioos:station:wmo:42049:1,2013-05-01T06:30:00Z,28.3507,-96.0058,2.0,283.3179437,33.64476334,-99999.0,'11111222,11111222,99999999' 
TABS,ioos:station:wmo:42049:1,2013-05-01T07:00:00Z,28.3507,-96.0058,2.0,283.1629459,33.24337227,-99999.0,'11111222,11111222,99999999' 
TABS,ioos:station:wmo:42049:1,2013-05-01T07:30:00Z,28.3507,-96.0058,2.0,282.5427401,27.53715308,-99999.0,'11111222,11111222,99999999' 
TABS,ioos:station:wmo:42049:1,2013-05-01T08:00:00Z,28.3507,-96.0058,2.0,279.122866,28.82458152,-99999.0,'11111222,11111222,99999999' 
TABS,ioos:station:wmo:42049:1,2013-05-01T08:30:00Z,28.3507,-96.0058,2.0,279.4936373,24.37379741,-99999.0,'11111222,11111222,99999999' 
TABS,ioos:station:wmo:42049:1,2013-05-01T09:00:00Z,28.3507,-96.0058,2.0,272.32412,24.91048374,-99999.0,'11111222,11111222,99999999' 
TABS,ioos:station:wmo:42049:1,2013-05-01T09:30:00Z,28.3507,-96.0058,2.0,267.5723653,21.95970173,-99999.0,'11111222,11111222,99999999' 
TABS,ioos:station:wmo:42049:1,2013-05-01T10:00:00Z,28.3507,-96.0058,2.0,256.969997,22.08870299,-99999.0,'11111222,11111222,99999999' 
TABS,ioos:station:wmo:42049:1,2013-05-01T10:30:00Z,28.3507,-96.0058,2.0,254.0204998,18.67142469,-99999.0,'11111222,11111222,99999999' 
TABS,ioos:station:wmo:42049:1,2013-05-01T11:00:00Z,28.3507,-96.0058,2.0,252.1865975,16.60609828,-99999.0,'11111222,11111222,99999999' 
TABS,ioos:station:wmo:42049:1,2013-05-01T11:30:00Z,28.3507,-96.0058,2.0,240.8354048,17.2578388,-99999.0,'11111222,11111222,99999999' 
TABS,ioos:station:wmo:42049:1,2013-05-01T12:00:00Z,28.3507,-96.0058,2.0,235.6798944,17.66549462,-99999.0,'11111222,11111222,99999999' 
TABS,ioos:station:wmo:42049:1,2013-05-01T12:30:00Z,28.3507,-96.0058,2.0,227.9941958,20.98022164,-99999.0,'11111222,11111222,99999999' 
TABS,ioos:station:wmo:42049:1,2013-05-01T13:00:00Z,28.3507,-96.0058,2.0,228.1556471,22.60513216,-99999.0,'11111222,11111222,99999999' 
TABS,ioos:station:wmo:42049:1,2013-05-01T13:30:00Z,28.3507,-96.0058,2.0,229.1854045,24.21936828,-99999.0,'11111222,11111222,99999999' 
TABS,ioos:station:wmo:42049:1,2013-05-01T14:00:00Z,28.3507,-96.0058,2.0,229.3569059,29.9689506,-99999.0,'11111222,11111222,99999999' 
TABS,ioos:station:wmo:42049:1,2013-05-01T14:30:00Z,28.3507,-96.0058,2.0,251.9845208,43.5868432,-99999.0,'11111222,11111222,99999999' 
TABS,ioos:station:wmo:42049:1,2013-05-01T15:00:00Z,28.3507,-96.0058,2.0,252.234889,43.52540522,-99999.0,'11111222,11111222,99999999' 
TABS,ioos:station:wmo:42049:1,2013-05-01T15:30:00Z,28.3507,-96.0058,2.0,250.5851643,48.46582507,-99999.0,'11111222,11111222,99999999' 
TABS,ioos:station:wmo:42049:1,2013-05-01T16:00:00Z,28.3507,-96.0058,2.0,248.3683663,48.77495259,-99999.0,'11111222,11111222,99999999' 
TABS,ioos:station:wmo:42049:1,2013-05-01T16:30:00Z,28.3507,-96.0058,2.0,248.0584403,51.75901564,-99999.0,'11111222,11111222,99999999' 
TABS,ioos:station:wmo:42049:1,2013-05-01T17:00:00Z,28.3507,-96.0058,2.0,251.945715,52.30522918,-99999.0,'11111222,11111222,99999999' 
TABS,ioos:station:wmo:42049:1,2013-05-01T17:30:00Z,28.3507,-96.0058,2.0,250.7348506,53.4955372,-99999.0,'11111222,11111222,99999999' 
TABS,ioos:station:wmo:42049:1,2013-05-01T18:00:00Z,28.3507,-96.0058,2.0,249.3940011,54.10112014,-99999.0,'11111222,11111222,99999999' 
TABS,ioos:station:wmo:42049:1,2013-05-01T18:30:00Z,28.3507,-96.0058,2.0,248.5583031,53.48131356,-99999.0,'11111222,11111222,99999999' 
TABS,ioos:station:wmo:42049:1,2013-05-01T19:00:00Z,28.3507,-96.0058,2.0,249.8571252,54.97214749,-99999.0,'11111222,11111222,99999999' 
TABS,ioos:station:wmo:42049:1,2013-05-01T19:30:00Z,28.3507,-96.0058,2.0,246.6322967,54.83774339,-99999.0,'11111222,11111222,99999999' 
TABS,ioos:station:wmo:42049:1,2013-05-01T20:00:00Z,28.3507,-96.0058,2.0,245.5046158,52.00015385,-99999.0,'11111222,11111222,99999999' 
TABS,ioos:station:wmo:42049:1,2013-05-01T20:30:00Z,28.3507,-96.0058,2.0,243.7597137,55.95626596,-99999.0,'11111222,11111222,99999999' 
TABS,ioos:station:wmo:42049:1,2013-05-01T21:00:00Z,28.3507,-96.0058,2.0,241.8294001,56.19655239,-99999.0,'11111222,11111222,99999999' 
TABS,ioos:station:wmo:42049:1,2013-05-01T21:30:00Z,28.3507,-96.0058,2.0,240.7045389,55.30259036,-99999.0,'11111222,11111222,99999999' 
TABS,ioos:station:wmo:42049:1,2013-05-01T22:00:00Z,28.3507,-96.0058,2.0,239.0254788,56.60139398,-99999.0,'11111222,11111222,99999999' 
TABS,ioos:station:wmo:42049:1,2013-05-01T22:30:00Z,28.3507,-96.0058,2.0,238.395586,54.63257087,-99999.0,'11111222,11111222,99999999' 
TABS,ioos:station:wmo:42049:1,2013-05-01T23:00:00Z,28.3507,-96.0058,2.0,238.3503326,54.75312776,-99999.0,'11111222,11111222,99999999' 
TABS,ioos:station:wmo:42049:1,2013-05-01T23:30:00Z,28.3507,-96.0058,2.0,236.4340042,53.64518245,-99999.0,'11111222,11111222,99999999' 
TABS,ioos:station:wmo:42049:1,2013-05-02T00:00:00Z,28.3507,-96.0058,2.0,235.9959312,50.15674332,-99999.0,'11111222,11111222,99999999' 
TABS,ioos:station:wmo:42049:1,2013-05-02T00:30:00Z,28.3507,-96.0058,2.0,236.1861149,54.05288614,-99999.0,'11111222,11111222,99999999' 
TABS,ioos:station:wmo:42049:1,2013-05-02T01:00:00Z,28.3507,-96.0058,2.0,231.0572998,49.7185217,-99999.0,'11111222,11111222,99999999' 
TABS,ioos:station:wmo:42049:1,2013-05-02T01:30:00Z,28.3507,-96.0058,2.0,233.7502653,48.57084825,-99999.0,'11111222,11111222,99999999' 
TABS,ioos:station:wmo:42049:1,2013-05-02T02:00:00Z,28.3507,-96.0058,2.0,234.9812751,44.50723649,-99999.0,'11111222,11111222,99999999' 
TABS,ioos:station:wmo:42049:1,2013-05-02T02:30:00Z,28.3507,-96.0058,2.0,229.939332,44.91962266,-99999.0,'11111222,11111222,99999999' 
TABS,ioos:station:wmo:42049:1,2013-05-02T03:00:00Z,28.3507,-96.0058,2.0,232.5456865,51.2066607,-99999.0,'11111222,11111222,99999999' 
TABS,ioos:station:wmo:42049:1,2013-05-02T03:30:00Z,28.3507,-96.0058,2.0,233.0962025,51.21000879,-99999.0,'11111222,11111222,99999999' 
TABS,ioos:station:wmo:42049:1,2013-05-02T04:00:00Z,28.3507,-96.0058,2.0,225.2361162,46.26639061,-99999.0,'11111222,11111222,99999999' 
TABS,ioos:station:wmo:42049:1,2013-05-02T04:30:00Z,28.3507,-96.0058,2.0,221.4827589,46.79961111,-99999.0,'11111222,11111222,99999999' 
TABS,ioos:station:wmo:42049:1,2013-05-02T05:00:00Z,28.3507,-96.0058,2.0,219.4402365,44.01229033,-99999.0,'11111222,11111222,99999999' 
TABS,ioos:station:wmo:42049:1,2013-05-02T05:30:00Z,28.3507,-96.0058,2.0,221.162378,46.38412767,-99999.0,'11111222,11111222,99999999' 
TABS,ioos:station:wmo:42049:1,2013-05-02T06:00:00Z,28.3507,-96.0058,2.0,220.7960899,47.46140537,-99999.0,'11111222,11111222,99999999' 
TABS,ioos:station:wmo:42049:1,2013-05-02T06:30:00Z,28.3507,-96.0058,2.0,219.1012114,47.20179869,-99999.0,'11111222,11111222,99999999' 
TABS,ioos:station:wmo:42049:1,2013-05-02T07:00:00Z,28.3507,-96.0058,2.0,218.2607089,44.65116012,-99999.0,'11111222,11111222,99999999' 
TABS,ioos:station:wmo:42049:1,2013-05-02T07:30:00Z,28.3507,-96.0058,2.0,219.0296823,41.33537226,-99999.0,'11111222,11111222,99999999' 
TABS,ioos:station:wmo:42049:1,2013-05-02T08:00:00Z,28.3507,-96.0058,2.0,215.4181381,45.24251651,-99999.0,'11111222,11111222,99999999' 
TABS,ioos:station:wmo:42049:1,2013-05-02T08:30:00Z,28.3507,-96.0058,2.0,219.9048687,50.084262,-99999.0,'11111222,11111222,99999999' 
TABS,ioos:station:wmo:42049:1,2013-05-02T09:00:00Z,28.3507,-96.0058,2.0,213.9248077,45.97671258,-99999.0,'11111222,11111222,99999999' 
TABS,ioos:station:wmo:42049:1,2013-05-02T09:30:00Z,28.3507,-96.0058,2.0,209.9656537,49.83132549,-99999.0,'11111222,11111222,99999999' 
TABS,ioos:station:wmo:42049:1,2013-05-02T10:00:00Z,28.3507,-96.0058,2.0,213.8799063,45.13342996,-99999.0,'11111222,11111222,99999999' 
TABS,ioos:station:wmo:42049:1,2013-05-02T10:30:00Z,28.3507,-96.0058,2.0,217.1686904,44.06060031,-99999.0,'11111222,11111222,99999999' 
TABS,ioos:station:wmo:42049:1,2013-05-02T11:00:00Z,28.3507,-96.0058,2.0,220.5044872,37.35113921,-99999.0,'11111222,11111222,99999999' 
TABS,ioos:station:wmo:42049:1,2013-05-02T11:30:00Z,28.3507,-96.0058,2.0,225.5564626,29.83424375,-99999.0,'11111222,11111222,99999999' 
TABS,ioos:station:wmo:42049:1,2013-05-02T12:00:00Z,28.3507,-96.0058,2.0,238.9380701,23.10260808,-99999.0,'11111222,11111222,99999999' 
TABS,ioos:station:wmo:42049:1,2013-05-02T12:30:00Z,28.3507,-96.0058,2.0,247.1421392,16.32167884,-99999.0,'11111222,11111222,99999999' 
TABS,ioos:station:wmo:42049:1,2013-05-02T13:00:00Z,28.3507,-96.0058,2.0,237.4198321,18.608138,-99999.0,'11111222,11111222,99999999' 
TABS,ioos:station:wmo:42049:1,2013-05-02T13:30:00Z,28.3507,-96.0058,2.0,248.4532743,20.85750704,-99999.0,'11111222,11111222,99999999' 
TABS,ioos:station:wmo:42049:1,2013-05-02T14:00:00Z,28.3507,-96.0058,2.0,238.7138735,19.83412463,-99999.0,'11111222,11111222,99999999' 
TABS,ioos:station:wmo:42049:1,2013-05-02T14:30:00Z,28.3507,-96.0058,2.0,239.2660337,21.34831609,-99999.0,'11111222,11111222,99999999' 
TABS,ioos:station:wmo:42049:1,2013-05-02T15:00:00Z,28.3507,-96.0058,2.0,242.9516034,21.22103909,-99999.0,'11111222,11111222,99999999' 
TABS,ioos:station:wmo:42049:1,2013-05-02T15:30:00Z,28.3507,-96.0058,2.0,250.7636181,16.51186543,-99999.0,'11111222,11111222,99999999' 
TABS,ioos:station:wmo:42049:1,2013-05-02T16:00:00Z,28.3507,-96.0058,2.0,248.0430438,15.08408764,-99999.0,'11111222,11111222,99999999' 
TABS,ioos:station:wmo:42049:1,2013-05-02T16:30:00Z,28.3507,-96.0058,2.0,235.9940599,12.08710056,-99999.0,'11111222,11111222,99999999' 
TABS,ioos:station:wmo:42049:1,2013-05-02T17:00:00Z,28.3507,-96.0058,2.0,230.8947517,10.05164663,-99999.0,'11111222,11111222,99999999' 
TABS,ioos:station:wmo:42049:1,2013-05-02T17:30:00Z,28.3507,-96.0058,2.0,191.0934866,14.55192084,-99999.0,'11111222,11111222,99999999' 
TABS,ioos:station:wmo:42049:1,2013-05-02T18:00:00Z,28.3507,-96.0058,2.0,196.0359343,16.4709259,-99999.0,'11111222,11111222,99999999' 
TABS,ioos:station:wmo:42049:1,2013-05-02T18:30:00Z,28.3507,-96.0058,2.0,191.4363537,19.51752546,-99999.0,'11111222,11111222,99999999' 
TABS,ioos:station:wmo:42049:1,2013-05-02T19:00:00Z,28.3507,-96.0058,2.0,194.3191182,21.10570776,-99999.0,'11111222,11111222,99999999' 
TABS,ioos:station:wmo:42049:1,2013-05-02T19:30:00Z,28.3507,-96.0058,2.0,201.964372,27.3771748,-99999.0,'11111222,11111222,99999999' 
TABS,ioos:station:wmo:42049:1,2013-05-02T20:00:00Z,28.3507,-96.0058,2.0,209.0131177,27.00952425,-99999.0,'11111222,11111222,99999999' 
TABS,ioos:station:wmo:42049:1,2013-05-02T20:30:00Z,28.3507,-96.0058,2.0,211.7254003,42.55942199,-99999.0,'11111222,11111222,99999999' 
TABS,ioos:station:wmo:42049:1,2013-05-02T21:00:00Z,28.3507,-96.0058,2.0,208.4937332,53.01143462,-99999.0,'11111222,11111222,99999999' 
TABS,ioos:station:wmo:42049:1,2013-05-02T21:30:00Z,28.3507,-96.0058,2.0,217.0510398,46.73623434,-99999.0,'11111222,11111222,99999999' 
TABS,ioos:station:wmo:42049:1,2013-05-02T22:00:00Z,28.3507,-96.0058,2.0,208.50299,71.66673147,-99999.0,'11111222,11111222,99999999' 
TABS,ioos:station:wmo:42049:1,2013-05-02T22:30:00Z,28.3507,-96.0058,2.0,215.4469515,56.7114812,-99999.0,'11111222,11111222,99999999' 
TABS,ioos:station:wmo:42049:1,2013-05-02T23:00:00Z,28.3507,-96.0058,2.0,213.6334228,62.03492645,-99999.0,'11111222,11111222,99999999' 
TABS,ioos:station:wmo:42049:1,2013-05-02T23:30:00Z,28.3507,-96.0058,2.0,218.5795474,62.66790646,-99999.0,'11111222,11111222,99999999' 
TABS,ioos:station:wmo:42049:1,2013-05-03T00:00:00Z,28.3507,-96.0058,2.0,217.9906676,56.3247814,-99999.0,'11111222,11111222,99999999' 
TABS,ioos:station:wmo:42049:1,2013-05-03T00:30:00Z,28.3507,-96.0058,2.0,221.2207082,62.97751107,-99999.0,'11111222,11111222,99999999' 
TABS,ioos:station:wmo:42049:1,2013-05-03T01:00:00Z,28.3507,-96.0058,2.0,218.6791983,54.53119566,-99999.0,'11111222,11111222,99999999' 
TABS,ioos:station:wmo:42049:1,2013-05-03T01:30:00Z,28.3507,-96.0058,2.0,219.295866,59.62144916,-99999.0,'11111222,11111222,99999999' 
TABS,ioos:station:wmo:42049:1,2013-05-03T02:00:00Z,28.3507,-96.0058,2.0,212.5034863,59.3462265,-99999.0,'11111222,11111222,99999999' 
TABS,ioos:station:wmo:42049:1,2013-05-03T02:30:00Z,28.3507,-96.0058,2.0,220.1619995,58.6087374,-99999.0,'11111222,11111222,99999999' 
TABS,ioos:station:wmo:42049:1,2013-05-03T03:00:00Z,28.3507,-96.0058,2.0,220.3494376,53.11593452,-99999.0,'11111222,11111222,99999999' 
TABS,ioos:station:wmo:42049:1,2013-05-03T03:30:00Z,28.3507,-96.0058,2.0,213.3264773,55.11334593,-99999.0,'11111222,11111222,99999999' 
TABS,ioos:station:wmo:42049:1,2013-05-03T04:00:00Z,28.3507,-96.0058,2.0,220.1468721,55.83531499,-99999.0,'11111222,11111222,99999999' 
TABS,ioos:station:wmo:42049:1,2013-05-03T04:30:00Z,28.3507,-96.0058,2.0,220.234791,53.28788605,-99999.0,'11111222,11111222,99999999' 
TABS,ioos:station:wmo:42049:1,2013-05-03T05:00:00Z,28.3507,-96.0058,2.0,211.6632675,60.94142269,-99999.0,'11111222,11111222,99999999' 
TABS,ioos:station:wmo:42049:1,2013-05-03T05:30:00Z,28.3507,-96.0058,2.0,217.5670504,56.19216315,-99999.0,'11111222,11111222,99999999' 
TABS,ioos:station:wmo:42049:1,2013-05-03T06:00:00Z,28.3507,-96.0058,2.0,219.9257063,46.29183621,-99999.0,'11111222,11111222,99999999' 
TABS,ioos:station:wmo:42049:1,2013-05-03T06:30:00Z,28.3507,-96.0058,2.0,215.5928123,58.88061905,-99999.0,'11111222,11111222,99999999' 
TABS,ioos:station:wmo:42049:1,2013-05-03T07:00:00Z,28.3507,-96.0058,2.0,219.6712711,54.74743921,-99999.0,'11111222,11111222,99999999' 
TABS,ioos:station:wmo:42049:1,2013-05-03T07:30:00Z,28.3507,-96.0058,2.0,208.6964261,64.68501527,-99999.0,'11111222,11111222,99999999' 
TABS,ioos:station:wmo:42049:1,2013-05-03T08:00:00Z,28.3507,-96.0058,2.0,211.3051931,58.66041936,-99999.0,'11111222,11111222,99999999' 
TABS,ioos:station:wmo:42049:1,2013-05-03T08:30:00Z,28.3507,-96.0058,2.0,226.2243814,53.26437928,-99999.0,'11111222,11111222,99999999' 
TABS,ioos:station:wmo:42049:1,2013-05-03T09:00:00Z,28.3507,-96.0058,2.0,216.9975866,59.98814966,-99999.0,'11111222,11111222,99999999' 
TABS,ioos:station:wmo:42049:1,2013-05-03T09:30:00Z,28.3507,-96.0058,2.0,219.8985174,51.13543683,-99999.0,'11111222,11111222,99999999' 
TABS,ioos:station:wmo:42049:1,2013-05-03T10:00:00Z,28.3507,-96.0058,2.0,210.1025313,57.18236879,-99999.0,'11111222,11111222,99999999' 
TABS,ioos:station:wmo:42049:1,2013-05-03T10:30:00Z,28.3507,-96.0058,2.0,217.7682324,53.81461883,-99999.0,'11111222,11111222,99999999' 
TABS,ioos:station:wmo:42049:1,2013-05-03T11:00:00Z,28.3507,-96.0058,2.0,223.5815228,41.42793381,-99999.0,'11111222,11111222,99999999' 
TABS,ioos:station:wmo:42049:1,2013-05-03T11:30:00Z,28.3507,-96.0058,2.0,224.9125059,41.82541452,-99999.0,'11111222,11111222,99999999' 
TABS,ioos:station:wmo:42049:1,2013-05-03T12:00:00Z,28.3507,-96.0058,2.0,216.7428528,42.49210397,-99999.0,'11111222,11111222,99999999' 
TABS,ioos:station:wmo:42049:1,2013-05-03T12:30:00Z,28.3507,-96.0058,2.0,214.9373991,59.61389519,-99999.0,'11111222,11111222,99999999' 
TABS,ioos:station:wmo:42049:1,2013-05-03T13:00:00Z,28.3507,-96.0058,2.0,217.64124,42.62186528,-99999.0,'11111222,11111222,99999999' 
TABS,ioos:station:wmo:42049:1,2013-05-03T13:30:00Z,28.3507,-96.0058,2.0,221.6035203,38.43511415,-99999.0,'11111222,11111222,99999999' 
TABS,ioos:station:wmo:42049:1,2013-05-03T14:00:00Z,28.3507,-96.0058,2.0,214.4663661,50.74863545,-99999.0,'11111222,11111222,99999999' 
TABS,ioos:station:wmo:42049:1,2013-05-03T14:30:00Z,28.3507,-96.0058,2.0,219.9101416,40.57111411,-99999.0,'11111222,11111222,99999999' 
TABS,ioos:station:wmo:42049:1,2013-05-03T15:00:00Z,28.3507,-96.0058,2.0,221.4573866,34.90584049,-99999.0,'11111222,11111222,99999999' 
TABS,ioos:station:wmo:42049:1,2013-05-03T15:30:00Z,28.3507,-96.0058,2.0,220.0949972,32.91614194,-99999.0,'11111222,11111222,99999999' 
TABS,ioos:station:wmo:42049:1,2013-05-03T16:00:00Z,28.3507,-96.0058,2.0,215.0326286,37.87146287,-99999.0,'11111222,11111222,99999999' 
TABS,ioos:station:wmo:42049:1,2013-05-03T16:30:00Z,28.3507,-96.0058,2.0,218.3869644,32.17528244,-99999.0,'11111222,11111222,99999999' 
TABS,ioos:station:wmo:42049:1,2013-05-03T17:00:00Z,28.3507,-96.0058,2.0,216.3330797,35.24154509,-99999.0,'11111222,11111222,99999999' 
TABS,ioos:station:wmo:42049:1,2013-05-03T17:30:00Z,28.3507,-96.0058,2.0,214.3369974,27.74510047,-99999.0,'11111222,11111222,99999999' 
TABS,ioos:station:wmo:42049:1,2013-05-03T18:00:00Z,28.3507,-96.0058,2.0,213.4703885,41.28663827,-99999.0,'11111222,11111222,99999999' 
TABS,ioos:station:wmo:42049:1,2013-05-03T18:30:00Z,28.3507,-96.0058,2.0,215.266982,28.81927307,-99999.0,'11111222,11111222,99999999' 
TABS,ioos:station:wmo:42049:1,2013-05-03T19:00:00Z,28.3507,-96.0058,2.0,213.1150965,30.97046981,-99999.0,'11111222,11111222,99999999' 
TABS,ioos:station:wmo:42049:1,2013-05-03T19:30:00Z,28.3507,-96.0058,2.0,212.0960299,28.71961873,-99999.0,'11111222,11111222,99999999' 
TABS,ioos:station:wmo:42049:1,2013-05-03T20:00:00Z,28.3507,-96.0058,2.0,213.628663,26.00158649,-99999.0,'11111222,11111222,99999999' 
TABS,ioos:station:wmo:42049:1,2013-05-03T20:30:00Z,28.3507,-96.0058,2.0,215.9798556,24.08490399,-99999.0,'11111222,11111222,99999999' 
TABS,ioos:station:wmo:42049:1,2013-05-03T21:00:00Z,28.3507,-96.0058,2.0,208.3177684,38.15623278,-99999.0,'11111222,11111222,99999999' 
TABS,ioos:station:wmo:42049:1,2013-05-03T21:30:00Z,28.3507,-96.0058,2.0,212.8255794,40.63918552,-99999.0,'11111222,11111222,99999999' 
TABS,ioos:station:wmo:42049:1,2013-05-03T22:00:00Z,28.3507,-96.0058,2.0,214.5870525,46.04853635,-99999.0,'11111222,11111222,99999999' 
TABS,ioos:station:wmo:42049:1,2013-05-03T22:30:00Z,28.3507,-96.0058,2.0,210.1161933,39.78001634,-99999.0,'11111222,11111222,99999999' 
TABS,ioos:station:wmo:42049:1,2013-05-03T23:00:00Z,28.3507,-96.0058,2.0,215.3696758,36.14038323,-99999.0,'11111222,11111222,99999999' 
TABS,ioos:station:wmo:42049:1,2013-05-03T23:30:00Z,28.3507,-96.0058,2.0,210.4573886,40.57986323,-99999.0,'11111222,11111222,99999999' 
TABS,ioos:station:wmo:42049:1,2013-05-04T00:00:00Z,28.3507,-96.0058,2.0,217.5255,47.34710234,-99999.0,'11111222,11111222,99999999' 
TABS,ioos:station:wmo:42049:1,2013-05-04T00:30:00Z,28.3507,-96.0058,2.0,220.559064,38.53987545,-99999.0,'11111222,11111222,99999999' 
TABS,ioos:station:wmo:42049:1,2013-05-04T01:00:00Z,28.3507,-96.0058,2.0,225.4375363,37.93738657,-99999.0,'11111222,11111222,99999999' 
TABS,ioos:station:wmo:42049:1,2013-05-04T01:30:00Z,28.3507,-96.0058,2.0,223.8586875,32.31411611,-99999.0,'11111222,11111222,99999999' 
TABS,ioos:station:wmo:42049:1,2013-05-04T02:00:00Z,28.3507,-96.0058,2.0,221.8923591,28.82870271,-99999.0,'11111222,11111222,99999999' 
TABS,ioos:station:wmo:42049:1,2013-05-04T02:30:00Z,28.3507,-96.0058,2.0,221.6877619,27.04958595,-99999.0,'11111222,11111222,99999999' 
TABS,ioos:station:wmo:42049:1,2013-05-04T03:00:00Z,28.3507,-96.0058,2.0,221.7300918,26.03562559,-99999.0,'11111222,11111222,99999999' 
TABS,ioos:station:wmo:42049:1,2013-05-04T03:30:00Z,28.3507,-96.0058,2.0,220.6834141,30.15878811,-99999.0,'11111222,11111222,99999999' 
TABS,ioos:station:wmo:42049:1,2013-05-04T04:00:00Z,28.3507,-96.0058,2.0,231.4663601,42.44188497,-99999.0,'11111222,11111222,99999999' 
TABS,ioos:station:wmo:42049:1,2013-05-04T04:30:00Z,28.3507,-96.0058,2.0,235.2849552,37.06822089,-99999.0,'11111222,11111222,99999999' 
TABS,ioos:station:wmo:42049:1,2013-05-04T05:00:00Z,28.3507,-96.0058,2.0,238.0026512,36.23496792,-99999.0,'11111222,11111222,99999999' 
TABS,ioos:station:wmo:42049:1,2013-05-04T05:30:00Z,28.3507,-96.0058,2.0,238.903649,35.66494077,-99999.0,'11111222,11111222,99999999' 
TABS,ioos:station:wmo:42049:1,2013-05-04T06:00:00Z,28.3507,-96.0058,2.0,242.5875387,33.27632792,-99999.0,'11111222,11111222,99999999' 
TABS,ioos:station:wmo:42049:1,2013-05-04T06:30:00Z,28.3507,-96.0058,2.0,242.8533986,30.42103384,-99999.0,'11111222,11111222,99999999' 
TABS,ioos:station:wmo:42049:1,2013-05-04T07:00:00Z,28.3507,-96.0058,2.0,239.2243973,31.79772476,-99999.0,'11111222,11111222,99999999' 
TABS,ioos:station:wmo:42049:1,2013-05-04T07:30:00Z,28.3507,-96.0058,2.0,238.2012848,35.79212204,-99999.0,'11111222,11111222,99999999' 
TABS,ioos:station:wmo:42049:1,2013-05-04T08:00:00Z,28.3507,-96.0058,2.0,241.5217663,34.83498959,-99999.0,'11111222,11111222,99999999' 
TABS,ioos:station:wmo:42049:1,2013-05-04T08:30:00Z,28.3507,-96.0058,2.0,246.4276671,34.8586589,-99999.0,'11111222,11111222,99999999' 
TABS,ioos:station:wmo:42049:1,2013-05-04T09:00:00Z,28.3507,-96.0058,2.0,253.3936193,29.42733593,-99999.0,'11111222,11111222,99999999' 
TABS,ioos:station:wmo:42049:1,2013-05-04T09:30:00Z,28.3507,-96.0058,2.0,250.2173004,41.6903466,-99999.0,'11111222,11111222,99999999' 
TABS,ioos:station:wmo:42049:1,2013-05-04T10:00:00Z,28.3507,-96.0058,2.0,251.2699746,38.11859913,-99999.0,'11111222,11111222,99999999' 
TABS,ioos:station:wmo:42049:1,2013-05-04T10:30:00Z,28.3507,-96.0058,2.0,252.3368051,35.19934658,-99999.0,'11111222,11111222,99999999' 
TABS,ioos:station:wmo:42049:1,2013-05-04T11:00:00Z,28.3507,-96.0058,2.0,252.4605904,34.17891309,-99999.0,'11111222,11111222,99999999' 
TABS,ioos:station:wmo:42049:1,2013-05-04T11:30:00Z,28.3507,-96.0058,2.0,256.4078114,28.76559056,-99999.0,'11111222,11111222,99999999' 
TABS,ioos:station:wmo:42049:1,2013-05-04T12:00:00Z,28.3507,-96.0058,2.0,255.3326771,25.1185111,-99999.0,'11111222,11111222,99999999' 
TABS,ioos:station:wmo:42049:1,2013-05-04T12:30:00Z,28.3507,-96.0058,2.0,249.6274709,21.5157849,-99999.0,'11111222,11111222,99999999' 
TABS,ioos:station:wmo:42049:1,2013-05-04T13:00:00Z,28.3507,-96.0058,2.0,238.2148921,19.26984432,-99999.0,'11111222,11111222,99999999' 
TABS,ioos:station:wmo:42049:1,2013-05-04T13:30:00Z,28.3507,-96.0058,2.0,233.1693592,17.36600415,-99999.0,'11111222,11111222,99999999' 
TABS,ioos:station:wmo:42049:1,2013-05-04T14:00:00Z,28.3507,-96.0058,2.0,231.1641442,15.27698923,-99999.0,'11111222,11111222,99999999' 
TABS,ioos:station:wmo:42049:1,2013-05-04T14:30:00Z,28.3507,-96.0058,2.0,228.5956739,12.8522216,-99999.0,'11111222,11111222,99999999' 
TABS,ioos:station:wmo:42049:1,2013-05-04T15:00:00Z,28.3507,-96.0058,2.0,221.7957764,14.92914599,-99999.0,'11111222,11111222,99999999' 
TABS,ioos:station:wmo:42049:1,2013-05-04T15:30:00Z,28.3507,-96.0058,2.0,223.4361715,8.552105004,-99999.0,'11133222,11111222,99999999' 
TABS,ioos:station:wmo:42049:1,2013-05-04T16:00:00Z,28.3507,-96.0058,2.0,229.2832124,10.79231208,-99999.0,'11111222,11111222,99999999' 